User: anonymous   Login
Location: Unspecified
(0.0000°N, 0.0000°E)
Time: 00:22:26
(UTC+00:00)
Language:

NOSS 3-2 (C) - Orbit

View from above orbital plane
View from above orbital plane
View from above satellite
View from above satellite

Ground track
Ground track

The orbit data is extracted from the following two-line orbital elements,

1 28097U 03054C   17086.16321921 0.00000000  00000-0  00000-0 0    08
2 28097  63.4140 165.6270 0297000 358.3519   1.6481 13.40735748    07
Epoch (UTC): 27 March 2017 03:55:02
Eccentricity: 0.0297000
inclination: 63.4140°
perigee height: 884 km
apogee height: 1329 km
right ascension of ascending node: 165.6270°
argument of perigee: 358.3519°
revolutions per day: 13.40735748
mean anomaly at epoch: 1.6481°
orbit number at epoch: 0

The dashed part of the orbit path shows where the satellite is in the earth's shadow,  

DLR